Tracking 18980 objects as of 21-Feb-2018
HD Live streaming from Space Station
objects crossing your sky now

NIMIQ 2

Track NIMIQ 2 now!
NIMIQ 2 is classified as:


NORAD ID: 27632
Int'l Code: 2002-062A
Perigee: 35,791.3 km
Apogee: 35,796.9 km
Inclination: 2.5 °
Period: 1,436.1 minutes
Semi major axis: 42165 km
RCS: 29.9526 m2 (large)
Launch date: December 29, 2002
Source: Canada (CA)
Launch site: TYURATAM MISSILE AND SPACE COMPLEX (TTMTR)

Television broadcast; 32 Ku-band, 2 Ka-band.
aabbcc
Your satellite tracking list
Your tracking list is empty




NASA's NSSDC Master Catalog

Two Line Element Set (TLE):
1 27632U 02062A   18051.55925823 -.00000232 +00000-0 +00000-0 0  9992
2 27632 002.5093 080.9088 0000658 164.2910 196.1028 01.00270461013749
Source of the keplerian elements: AFSPC